Temperature
31 32 32 32 32 32 32 32 31 31 31 30 30 30 30 29 28 27 27 26 25 24 23 22 21 21 20 19 19 19 19 19 18 18 18 18 18 18 18 18 18 18 18 18
31 31 32 32 32 31 31 31 31 31 31 31 31 31 31 30 28 28 27 26 25 24 23 22 21 21 20 20 19 19 19 19 19 19 18 18 18 18 18 18 18 18 18 18
31 32 32 31 31 31 31 32 31 31 31 31 31 31 30 30 29 28 27 27 26 25 24 23 22 21 21 20 20 20 19 19 19 19 19 18 18 18 18 18 18 18 18 18
32 32 31 31 31 31 31 32 31 31 31 31 31 31 31 31 30 29 28 27 27 26 25 23 22 22 21 21 20 20 19 19 19 19 19 19 19 19 18 18 18 18 18 18
31 31 31 31 32 31 31 31 31 31 31 31 31 31 32 31 30 30 29 28 27 26 25 24 23 22 22 21 21 20 20 20 19 19 19 19 19 19 18 18 18 18 18 18
32 32 32 32 32 32 31 31 31 31 32 31 31 31 31 32 31 31 30 28 27 26 25 24 23 22 22 21 21 21 20 20 20 19 19 19 19 19 18 18 18 18 18 18
30 31 31 31 31 31 31 31 31 30 30 31 31 31 31 31 31 31 30 29 28 27 26 25 24 23 22 22 21 21 20 20 20 20 19 19 19 19 19 18 18 18 18 18
30 30 31 31 32 31 31 32 30 30 30 31 31 31 31 31 31 30 29 29 27 27 26 25 24 23 22 22 22 21 21 20 20 20 20 19 19 19 19 19 18 18 18 18
31 31 31 31 32 32 31 32 33 31 31 31 31 31 31 31 31 30 29 29 28 27 26 25 24 23 23 22 22 21 21 21 20 20 20 20 19 19 19 19 19 18 18 18
31 30 31 31 31 31 32 32 31 31 29 30 31 31 31 31 31 30 30 29 28 27 26 25 24 23 23 22 22 21 21 21 21 20 20 19 19 19 19 18 18 18 18 18
31 30 30 30 30 31 30 31 31 31 31 30 30 31 32 31 31 30 30 29 27 26 26 25 24 23 22 22 22 21 21 21 21 20 20 19 19 19 19 19 18 18 18 18
30 31 30 30 31 31 31 31 31 30 30 30 31 31 32 31 31 30 30 28 27 26 25 25 24 23 22 22 21 21 21 21 21 20 20 20 19 19 19 19 19 18 18 18
29 29 29 29 30 30 30 31 31 31 31 30 31 31 31 30 30 29 29 27 26 25 25 24 23 22 22 21 21 21 21 20 20 20 20 20 19 19 19 19 19 19 19 19
28 29 29 30 30 31 30 30 30 31 30 30 31 31 31 30 30 29 28 27 26 25 24 23 23 22 21 21 21 21 20 20 20 20 20 20 19 19 19 19 19 19 19 18
28 29 29 30 30 31 30 30 30 30 31 31 31 31 31 30 30 28 27 26 26 25 24 23 22 22 21 21 21 20 20 20 20 20 20 20 19 19 19 19 19 18 18 18
27 28 28 28 29 30 29 30 30 30 30 30 31 31 31 29 28 27 26 26 26 25 24 23 22 21 21 21 21 20 20 20 20 20 20 19 19 19 19 19 19 18 18 18
27 27 27 28 29 28 28 30 30 30 30 30 30 30 30 29 28 26 26 25 25 25 24 23 22 21 21 21 20 20 20 20 20 19 19 19 19 19 19 19 18 18 18 18
25 26 27 28 27 26 29 30 30 29 29 30 30 29 28 28 26 25 25 24 24 24 23 22 22 21 21 21 20 20 20 20 19 19 19 19 19 19 18 18 18 18 18 18
25 25 26 27 27 27 28 28 28 28 28 29 28 28 27 26 26 26 24 23 23 22 22 22 22 21 21 20 20 20 20 19 19 19 19 19 19 18 18 18 18 18 18 17
24 24 26 26 26 26 28 28 27 28 27 27 27 27 26 26 27 27 23 22 22 21 21 21 21 21 20 20 20 19 19 19 19 19 19 19 19 18 18 18 18 17 17 17
24 24 25 25 26 27 27 26 26 26 27 25 25 25 25 25 25 23 22 21 21 20 20 20 20 20 20 20 20 19 19 19 19 19 18 18 18 18 18 17 17 17 17 17
24 25 24 25 25 26 25 26 26 25 23 23 24 24 23 23 22 21 21 20 20 20 20 20 20 20 20 19 19 19 19 19 18 18 18 18 18 17 17 17 17 17 17 16
24 24 25 25 25 23 23 23 22 21 22 22 22 22 22 22 21 21 20 20 20 19 19 20 20 19 19 19 19 19 19 18 18 18 18 17 17 17 17 17 17 17 16 16
22 22 23 23 23 22 22 21 21 21 21 21 21 21 21 21 20 20 20 19 19 19 19 19 19 19 19 18 18 18 18 18 17 17 17 17 17 17 17 16 16 16 16 16
22 22 22 22 22 22 21 21 20 20 20 20 20 20 20 20 19 19 19 18 18 18 18 18 18 18 18 18 18 18 17 17 17 17 17 17 17 16 16 16 16 16 16 16
22 22 22 22 21 22 21 20 20 19 20 19 19 19 19 19 19 18 18 18 18 18 17 17 17 18 17 17 17 17 17 17 16 17 16 17 17 16 16 16 16 16 15 15
Wind_Speed
7 7 6 4 3 1 1 1 3 4 3 3 2 1 4 7 7 7 7 7 7 6 7 7 6 6 5 5 4 4 4 3 2 2 2 3 4 3 3 4 4 4 4 4
8 7 5 4 4 4 3 2 2 4 3 2 1 2 3 6 7 7 7 7 8 8 8 8 7 7 7 6 5 5 5 4 3 3 2 2 2 3 3 3 4 3 3 3
9 4 5 6 6 6 5 3 1 1 2 4 3 3 5 6 7 7 7 7 8 9 9 9 9 8 8 7 7 5 5 5 4 4 3 3 3 2 2 3 3 3 3 3
8 5 6 8 8 7 5 2 2 2 4 1 2 1 4 5 7 7 8 8 9 9 10 10 10 10 9 8 7 7 6 5 5 5 3 3 3 2 2 2 2 3 3 3
8 8 9 9 6 6 2 2 3 4 4 4 2 3 3 5 4 6 7 8 9 9 10 10 10 10 9 8 8 7 7 6 6 5 4 4 3 3 2 2 3 2 3 3
6 6 7 6 4 5 5 5 4 6 6 4 1 4 1 3 2 3 6 6 7 9 10 10 10 9 9 9 8 8 8 7 6 6 5 5 4 3 3 3 3 3 3 3
10 9 7 6 7 8 9 8 6 6 5 2 1 4 1 2 1 2 4 6 7 9 10 10 10 10 10 10 9 8 8 8 7 7 6 6 5 5 4 4 4 3 3 3
13 12 10 8 9 8 11 10 7 5 4 2 4 3 1 2 2 3 4 6 7 8 9 10 10 10 10 10 10 9 9 8 7 7 6 6 6 5 4 4 3 3 3 2
11 10 8 7 6 8 9 10 7 7 6 6 2 2 2 3 3 4 5 6 7 8 9 9 10 10 10 10 10 10 9 8 7 7 6 6 5 5 3 3 4 3 3 3
8 8 8 7 7 5 7 7 7 7 6 6 4 4 2 3 4 5 6 6 7 7 7 8 9 9 9 9 9 9 9 8 7 7 6 5 5 5 4 4 3 2 3 2
9 10 9 9 10 10 9 10 8 7 7 8 5 2 1 2 3 4 5 6 6 6 7 7 8 8 9 8 9 8 8 8 7 7 6 5 5 4 4 3 3 3 3 3
9 10 10 10 5 5 10 11 11 9 7 8 7 2 3 2 3 4 4 5 5 6 6 7 8 8 8 8 8 8 7 7 7 7 6 5 4 4 4 3 3 3 3 3
7 9 11 11 10 8 9 10 11 10 8 9 9 3 5 4 3 3 4 4 5 6 6 7 7 7 7 8 7 7 7 7 7 7 6 5 5 4 4 4 3 3 3 3
7 10 13 14 9 11 11 11 12 12 11 10 10 6 4 3 3 3 4 4 5 6 6 7 7 7 7 7 7 7 7 7 7 7 6 6 6 5 5 4 4 3 3 4
7 11 12 10 7 8 11 12 13 14 13 12 10 9 6 3 4 3 4 5 5 6 7 7 7 7 7 7 7 7 7 7 7 7 7 6 6 5 5 4 4 4 4 4
6 8 10 11 11 11 12 13 14 13 13 13 12 10 5 3 3 3 4 5 5 6 6 7 7 7 7 7 7 7 7 7 7 7 6 6 5 5 5 5 4 4 4 4
8 8 10 13 11 11 16 15 15 13 11 11 12 7 3 4 3 3 4 5 5 5 5 6 7 7 7 7 7 7 7 7 7 7 6 5 5 5 5 5 5 4 4 4
8 9 8 10 10 16 9 6 9 10 10 10 9 6 5 4 3 3 3 4 4 4 5 5 6 6 6 6 7 7 7 7 7 7 6 6 5 5 4 4 4 4 4 5
8 9 9 10 14 13 8 6 8 9 9 7 8 7 5 3 3 4 2 1 2 2 3 4 5 5 6 6 6 6 6 6 6 6 6 6 6 5 5 5 5 5 5 5
7 9 10 11 14 14 8 6 4 7 10 5 5 5 4 5 7 3 2 1 1 1 2 3 4 5 5 5 5 6 6 6 6 6 6 5 5 6 6 6 5 5 5 5
11 10 14 14 13 10 3 5 6 10 4 3 3 4 4 4 3 1 1 0 1 2 2 3 3 4 4 5 5 5 5 5 5 4 4 5 5 6 5 5 5 5 5 5
11 11 12 13 14 10 4 5 5 0 2 1 2 2 2 2 1 1 1 1 1 2 2 3 3 3 3 4 5 5 5 4 3 3 4 4 5 5 5 5 5 5 5 6
9 6 6 7 5 2 1 1 1 0 1 1 1 1 2 3 2 1 1 0 1 1 1 2 2 3 3 4 4 5 4 3 3 3 4 4 5 5 6 6 6 6 6 6
6 4 5 5 5 3 2 2 1 1 1 1 1 1 2 3 2 1 1 0 1 0 0 1 2 2 2 3 3 3 3 4 4 5 4 5 6 6 6 6 6 6 6 6
6 6 7 8 5 4 4 2 1 1 1 1 1 1 1 2 1 1 0 0 1 1 0 1 1 2 2 2 3 3 3 4 5 5 5 6 6 5 6 6 5 6 5 6
8 8 8 7 5 5 4 3 2 2 2 1 1 1 1 1 1 1 1 1 1 1 1 2 2 2 2 2 3 3 3 4 5 5 5 5 5 4 5 5 5 5 6 5
Wind_Direction
188 203 199 183 195 121 140 135 107 98 123 193 208 196 155 169 188 186 181 178 179 181 172 171 176 176 171 170 168 166 162 151 151 131 131 120 119 115 109 111 108 113 115 118
194 205 192 170 183 197 202 198 151 126 136 222 269 248 177 178 192 195 189 186 185 181 175 174 178 180 181 180 180 177 176 171 171 143 130 126 118 121 115 113 116 122 128 134
212 176 170 193 198 208 219 235 211 136 165 204 268 191 160 172 188 193 199 195 192 189 184 182 184 187 187 187 188 184 182 178 180 169 158 145 143 145 134 137 140 147 151 149
217 184 192 209 208 222 210 210 242 224 239 218 283 1 130 161 179 194 200 200 199 194 190 187 187 189 192 190 186 185 184 186 186 188 182 173 164 155 144 167 146 157 164 165
200 195 204 215 212 223 213 181 226 241 253 261 226 284 115 147 182 192 194 197 197 194 191 189 190 189 192 191 187 183 184 188 190 195 192 198 194 178 171 173 163 185 174 184
209 197 220 223 207 204 175 184 202 227 245 246 280 277 89 118 174 178 182 189 191 190 187 186 185 184 188 189 189 186 184 188 192 198 202 207 208 206 195 197 190 198 190 190
205 201 197 201 194 188 208 225 230 228 226 229 187 262 36 62 139 181 179 181 182 182 182 182 182 183 187 188 189 189 188 191 194 199 205 207 212 213 214 220 209 221 210 199
206 203 198 204 219 211 217 235 252 266 268 230 199 242 89 96 156 168 169 170 172 177 179 182 183 183 186 187 189 190 191 196 197 200 204 209 215 221 218 221 237 227 235 217
212 207 185 200 219 227 216 233 257 256 263 264 223 202 194 155 171 169 165 164 171 176 177 182 183 183 185 186 188 191 190 194 200 202 201 207 215 228 231 225 233 235 232 224
222 213 189 186 197 220 249 230 230 246 257 255 228 225 207 173 184 174 172 171 171 175 178 181 182 180 183 185 185 188 189 190 198 203 210 203 206 214 224 235 229 242 241 240
223 219 198 196 214 213 206 219 236 245 259 264 255 236 92 179 187 182 178 172 167 174 176 176 177 176 176 177 178 180 184 186 191 198 200 206 204 205 209 215 226 232 238 231
219 227 218 210 208 249 229 231 225 235 241 257 268 245 102 144 164 171 171 162 164 172 172 169 167 169 173 176 179 178 182 184 186 187 189 194 197 202 208 213 224 229 231 235
199 220 217 213 206 205 221 224 229 237 244 248 255 227 128 141 163 167 165 162 162 168 168 164 165 171 178 180 181 180 182 184 183 181 186 191 197 201 212 219 223 230 234 240
218 223 233 235 226 203 208 214 221 229 237 242 249 247 211 203 203 187 176 171 172 170 171 169 169 174 179 181 182 182 183 183 180 182 188 191 200 206 210 216 219 226 233 238
216 224 231 244 236 224 223 220 220 230 244 254 255 250 238 232 223 210 189 183 182 176 178 178 179 179 179 181 182 183 186 186 184 184 190 192 198 202 206 208 216 225 237 241
216 225 222 228 226 229 234 232 228 232 242 249 254 253 246 237 217 206 198 194 194 189 186 185 184 183 184 185 184 182 185 186 186 190 194 194 196 199 203 206 212 222 235 245
204 210 223 229 219 230 235 230 230 232 236 246 251 250 224 224 224 222 220 214 206 198 193 188 188 189 189 187 183 184 185 184 184 189 196 197 202 208 210 212 210 221 231 238
211 218 225 233 221 233 234 213 228 235 242 247 251 243 233 240 236 226 217 215 213 205 200 192 191 187 186 182 180 185 180 186 192 196 200 202 206 211 212 213 218 224 231 235
211 214 226 229 231 235 224 208 214 227 237 238 236 231 226 214 208 196 169 168 184 186 192 185 184 180 175 175 175 175 180 184 191 200 206 208 213 219 219 218 222 226 233 239
195 212 225 230 237 238 226 184 205 229 232 210 217 223 219 213 236 197 97 105 170 160 166 170 171 170 166 169 171 178 186 190 200 208 211 212 217 224 228 230 230 231 233 239
195 206 222 229 237 240 175 156 186 223 233 158 205 217 220 220 275 62 91 118 157 150 153 159 166 174 174 175 177 189 197 205 213 215 215 216 221 226 228 231 234 238 240 244
213 210 215 225 234 232 133 179 211 261 63 150 208 219 208 189 166 126 105 122 150 148 157 161 166 171 175 178 184 198 210 217 216 221 222 225 230 235 229 228 234 236 242 244
224 231 225 227 230 80 146 183 84 109 196 197 214 208 192 191 187 153 114 110 143 157 168 182 175 175 183 188 197 210 218 220 219 224 232 240 242 242 242 236 236 237 237 248
211 220 227 228 219 205 189 178 172 207 221 240 207 210 204 196 173 147 126 68 53 66 153 195 189 199 204 209 217 224 223 222 223 226 233 236 237 242 242 244 243 244 245 252
223 207 220 227 225 212 198 192 207 209 203 203 180 201 198 187 185 170 167 3 13 26 353 242 227 234 236 233 230 232 231 228 234 237 240 244 243 243 244 244 252 250 250 252
227 223 226 230 215 232 222 218 225 224 215 201 201 220 244 220 223 237 268 313 315 319 301 277 269 268 263 254 252 246 238 235 243 247 248 251 252 249 251 252 257 238 243 234
Height
1501 1499 1499 1497 1496 1497 1499 1501 1504 1504 1504 1505 1506 1506 1507 1512 1516 1517 1520 1523 1525 1527 1530 1531 1532 1533 1534 1534 1534 1535 1535 1535 1535 1535 1536 1537 1537 1538 1538 1539 1539 1539 1539 1539
1499 1499 1496 1497 1498 1499 1500 1503 1504 1504 1504 1505 1504 1504 1504 1508 1512 1515 1517 1520 1523 1526 1528 1530 1531 1532 1533 1534 1534 1535 1535 1535 1535 1536 1536 1537 1538 1539 1539 1539 1539 1539 1540 1540
1496 1495 1496 1499 1501 1502 1501 1501 1502 1505 1504 1502 1503 1503 1503 1506 1510 1513 1516 1518 1520 1523 1525 1528 1529 1531 1532 1533 1533 1534 1535 1535 1536 1536 1537 1538 1538 1539 1540 1540 1540 1540 1540 1541
1494 1495 1498 1499 1499 1499 1503 1498 1500 1502 1505 1503 1504 1511 1502 1501 1506 1509 1512 1515 1517 1520 1523 1525 1527 1529 1530 1532 1533 1533 1534 1535 1535 1536 1538 1538 1539 1540 1540 1540 1541 1541 1541 1541
1494 1495 1497 1498 1497 1497 1498 1498 1499 1500 1502 1503 1502 1507 1502 1499 1503 1504 1507 1511 1514 1517 1520 1522 1525 1527 1529 1531 1532 1533 1533 1534 1535 1536 1537 1538 1539 1539 1540 1540 1540 1541 1541 1541
1490 1493 1494 1493 1495 1496 1498 1500 1500 1499 1498 1512 1506 1508 1506 1497 1499 1500 1504 1508 1511 1514 1517 1520 1523 1525 1527 1529 1530 1532 1532 1533 1534 1535 1536 1536 1538 1538 1539 1539 1540 1540 1541 1541
1495 1493 1493 1494 1496 1498 1498 1503 1511 1514 1513 1512 1502 1506 1504 1495 1496 1499 1502 1505 1509 1512 1515 1518 1521 1523 1525 1527 1529 1530 1531 1531 1533 1534 1535 1536 1536 1537 1538 1538 1539 1539 1540 1540
1498 1498 1491 1491 1492 1495 1495 1496 1512 1523 1517 1507 1503 1505 1497 1494 1497 1499 1502 1504 1507 1510 1513 1516 1518 1521 1523 1525 1526 1528 1529 1530 1531 1532 1533 1534 1535 1536 1537 1537 1538 1538 1539 1539
1490 1493 1487 1489 1490 1490 1495 1494 1489 1500 1505 1509 1502 1498 1494 1493 1496 1498 1500 1503 1505 1508 1511 1514 1516 1518 1520 1522 1524 1526 1527 1529 1530 1531 1532 1532 1533 1534 1535 1535 1535 1536 1536 1537
1482 1492 1488 1490 1491 1492 1489 1488 1495 1501 1517 1517 1508 1502 1497 1495 1494 1496 1498 1501 1504 1507 1510 1512 1514 1516 1518 1520 1522 1524 1526 1527 1528 1530 1531 1532 1532 1532 1533 1534 1533 1534 1534 1534
1480 1490 1491 1490 1492 1490 1494 1493 1493 1494 1498 1509 1514 1504 1486 1490 1491 1494 1497 1500 1503 1506 1508 1510 1512 1514 1516 1518 1520 1521 1523 1525 1526 1528 1529 1530 1531 1531 1531 1531 1532 1532 1532 1532
1483 1483 1489 1488 1486 1486 1485 1487 1491 1502 1505 1501 1502 1501 1484 1488 1491 1494 1496 1500 1502 1505 1507 1509 1511 1513 1515 1516 1518 1519 1521 1523 1524 1526 1527 1528 1528 1529 1529 1530 1530 1530 1530 1530
1484 1487 1498 1497 1494 1490 1488 1486 1487 1488 1494 1498 1501 1499 1486 1489 1491 1494 1496 1499 1502 1504 1506 1508 1509 1511 1513 1515 1516 1518 1519 1521 1522 1524 1525 1526 1526 1527 1527 1528 1528 1528 1528 1528
1485 1484 1488 1491 1484 1480 1488 1488 1486 1488 1494 1494 1493 1490 1486 1487 1490 1494 1496 1499 1501 1503 1505 1506 1508 1510 1511 1513 1515 1516 1517 1519 1520 1521 1523 1523 1524 1525 1525 1526 1526 1526 1526 1526
1482 1483 1482 1478 1476 1477 1480 1483 1485 1487 1485 1488 1485 1484 1483 1486 1490 1493 1495 1498 1499 1502 1503 1505 1506 1508 1509 1511 1513 1514 1516 1517 1518 1519 1520 1521 1522 1523 1523 1523 1524 1524 1524 1524
1482 1483 1483 1484 1479 1479 1482 1480 1481 1483 1482 1483 1482 1483 1482 1486 1490 1493 1495 1496 1497 1499 1501 1503 1504 1506 1507 1508 1510 1512 1513 1514 1516 1517 1518 1519 1520 1520 1520 1521 1521 1521 1521 1521
1480 1484 1487 1484 1480 1483 1486 1478 1478 1479 1478 1480 1482 1481 1483 1486 1489 1492 1494 1495 1496 1498 1500 1501 1502 1504 1505 1506 1508 1509 1511 1512 1513 1514 1516 1516 1517 1518 1518 1518 1518 1518 1518 1518
1483 1485 1484 1482 1487 1499 1476 1471 1473 1476 1477 1477 1478 1480 1484 1487 1489 1491 1493 1494 1495 1496 1498 1499 1500 1502 1503 1505 1506 1507 1508 1510 1511 1512 1513 1514 1515 1515 1515 1515 1515 1515 1515 1515
1482 1484 1483 1484 1487 1482 1475 1474 1475 1477 1479 1478 1479 1481 1484 1487 1488 1489 1491 1493 1494 1495 1496 1497 1498 1500 1501 1502 1504 1505 1506 1508 1509 1509 1510 1511 1511 1512 1512 1512 1512 1512 1512 1512
1483 1483 1483 1484 1488 1486 1473 1471 1476 1478 1481 1479 1481 1482 1484 1486 1484 1485 1491 1492 1493 1494 1494 1495 1496 1498 1499 1499 1501 1503 1504 1505 1506 1507 1507 1508 1508 1508 1509 1509 1509 1509 1508 1508
1480 1483 1482 1482 1483 1473 1469 1473 1477 1484 1480 1480 1482 1483 1485 1485 1486 1489 1490 1491 1491 1492 1492 1493 1494 1496 1497 1498 1499 1500 1501 1502 1503 1504 1504 1505 1505 1505 1505 1505 1505 1505 1505 1505
1474 1475 1480 1479 1482 1478 1473 1474 1475 1478 1481 1481 1482 1484 1485 1486 1488 1488 1489 1489 1490 1490 1490 1491 1492 1494 1495 1495 1496 1497 1498 1499 1500 1501 1502 1502 1502 1503 1502 1502 1501 1501 1501 1501
1470 1470 1468 1472 1475 1476 1476 1477 1480 1481 1481 1482 1483 1484 1485 1486 1487 1488 1488 1488 1488 1488 1489 1490 1491 1492 1493 1493 1494 1495 1496 1496 1497 1498 1498 1498 1498 1499 1499 1498 1497 1497 1497 1497
1471 1474 1473 1474 1473 1475 1477 1478 1480 1481 1482 1482 1483 1484 1485 1485 1486 1486 1487 1488 1488 1487 1488 1488 1489 1490 1491 1491 1492 1492 1493 1493 1494 1494 1495 1494 1494 1495 1495 1494 1494 1493 1492 1492
1469 1472 1472 1473 1474 1475 1476 1478 1479 1480 1481 1482 1483 1484 1484 1485 1485 1485 1486 1487 1487 1487 1487 1487 1488 1488 1488 1489 1489 1489 1490 1490 1490 1491 1491 1491 1491 1491 1490 1490 1489 1488 1487 1488
1469 1469 1470 1468 1472 1473 1475 1477 1479 1480 1480 1481 1482 1482 1484 1484 1485 1485 1485 1486 1486 1486 1486 1486 1486 1486 1486 1486 1486 1486 1486 1487 1487 1487 1487 1488 1487 1487 1486 1485 1484 1483 1483 1482